Regional Weather Roundup
Issued by NWS

Home | Current Version | Previous Version | Text Only | Print | Product List | Glossary On
Versions: 1 2 3 4 5 6 7 8 9 10 11 12 13 14 15 16 17 18 19 20 21 22 23 24 25 26 27 28 29 30 31 32 33 34 35 36 37 38 39 40 41 42 43 44 45 46 47 48 49 50
000
ASUS44 KLUB 230301
RWRTX
WEST TEXAS WEATHER ROUNDUP
NATIONAL WEATHER SERVICE LUBBOCK TX
1000 PM CDT TUE APR 22 2014

NOTE: "FAIR" INDICATES FEW OR NO CLOUDS BELOW 12,000 FEET WITH NO
SIGNIFICANT WEATHER AND/OR OBSTRUCTIONS TO VISIBILITY.

TXZ004-006>008-010-012-014-016-OKZ002-230400-
TEXAS PANHANDLE/OKLAHOMA PANHANDLE

CITY           SKY/WX    TMP DP  RH WIND       PRES   REMARKS
AMARILLO       CLEAR     70  39  32 SE21      29.92R
BORGER         CLEAR     73  40  30 S17G29    29.88R
DALHART        PTCLDY    72  38  29 S21       29.87R
GUYMON         PTCLDY    71  43  36 S21G31    29.81R
$$

TXZ026-029-035-045-048-230400-
SOUTHERN PANHANDLE/SOUTH PLAINS/ROLLING PLAINS

CITY           SKY/WX    TMP DP  RH WIND       PRES   REMARKS
CHILDRESS      CLEAR     69  51  52 SE12      29.93R
SEMINOLE       CLEAR     72  40  30 SE9       29.94R
LUBBOCK        CLEAR     72  35  25 SE17      29.93S
$$

TXZ052-054-060>062-072-078-127-140-154-169-230400-
PERMIAN BASIN/CONCHO VALLEY/BIG COUNTRY/EDWARDS PLATEAU

CITY           SKY/WX    TMP DP  RH WIND       PRES   REMARKS
ABILENE        CLEAR     69  45  41 SE8       29.96R
BROWNWOOD      CLEAR     66  50  55 SE8       29.96S
JUNCTION       CLEAR     72  53  51 E6        29.96R
MIDLAND        CLEAR     76  41  28 SE14      29.93R
ODESSA           N/A    N/A N/A N/A MISG      29.93R
SAN ANGELO     CLEAR     73  44  35 E8        29.94R
WINK           CLEAR     75  49  39 SE7       29.88R
$$

TXZ055-058-074-075-080-082-230400-
FAR WEST/SOUTHWEST MOUNTAINS/TRANS PECOS

CITY           SKY/WX    TMP DP  RH WIND       PRES   REMARKS
DRYDEN           N/A     83  46  27 SE10      29.90R
EL PASO        MOCLDY    81  32  17 S12       29.82R
FORT STOCKTON  CLEAR     77  42  28 SE15      29.91F
GUADALUPE PASS PTCLDY    65  42  43 NE25      30.00S
MARFA          CLEAR     70  39  32 E15       30.01R
PECOS          CLEAR     67  55  63 E8        29.86S
PRESIDIO       FAIR      84  39  19 E15       29.83R
$$

TXZ014-016-019-021>030-083-230400
TEXAS TECH WEST TEXAS MESONET/TEXAS PANHANDLE/NORTHERN SOUTH PLAINS

CITY           SKY/WX    TMP DP  RH WIND       PRES   REMARKS
ABERNATHY 5ENE   N/A     69  35  29 SE15      29.94S
AMARILLO 9NNE    N/A     73  38  28 S16       29.89R
AMARILLO 7SSE    N/A     71  37  29 SE20      29.93R
AMHERST 1NE      N/A     71  34  26 SE13      29.93S
BOOTLEG 11WNW    N/A     68  38  34 S13       29.94F
CANADIAN 6E      N/A     68  48  49 SE15      29.89S
CAPROCK CYN SP   N/A     69  43  39 SE10      29.93S
CHILDRESS 2NNE   N/A     67  53  62 SE12      29.92S
CLARENDON 2WSW   N/A     70  40  34 SE15      29.93S
CLAUDE 12SW      N/A     70  41  35 SE13      29.93S
DIMMITT 2NE      N/A     66  37  34 SE13      29.94R
FLOYDADA 2NNE    N/A     68  32  27 SE13      29.95S
FRIONA 2NE       N/A     67  37  32 S13       29.93S
GOODLETT 3W      N/A     67  53  59 E9        29.92S
HART 3N          N/A     65  37  34 SE13      29.94S
HEREFORD 2NW     N/A     69  35  28 S13       29.92S
MCLEAN 1E        N/A     66  49  54 SE15      29.92S
MEMPHIS 1NE      N/A     70  49  48 SE9       29.92S
MULESHOE 2SSW    N/A     70  37  29 SE12      29.93R
OLTON 6S         N/A     67  33  28 SE10      29.94R
PALO DURO SP     N/A     73  37  27 SE15      29.94R
PAMPA 2E         N/A     65  49  57 SE17      29.93R
PLAINVIEW 1S     N/A     69  37  30 SE12      29.94R
SILVERTON 7ESE   N/A     68  42  38 SE16      29.95R
TULIA 2ENE       N/A     68  37  31 SE15      29.94R
TURKEY 2WSW      N/A     71  42  35 SE14      29.91F
UMBARGER 3NNE    N/A     70  36  29 SE20      29.93S
$$

TXZ033>036-039>041-045>048-230400
TEXAS TECH WEST TEXAS MESONET/SOUTH PLAINS

CITY           SKY/WX    TMP DP  RH WIND       PRES   REMARKS
AIKEN 3WSW       N/A     66  40  38 SE12      29.95S
ANDREWS 2NE      N/A     74  39  29 SE9       29.93S
ANTON 6SSW       N/A     69  37  31 SE12      29.93S
BROWNFIELD 2S    N/A     70  39  32 SE13      29.94R
DENVR CTY 7WNW   N/A     69  37  30 SE12      29.93S
GAIL 2ESE        N/A     72  36  27 SE8       29.93S
LAMESA 2SE       N/A     71  39  30 SE8       29.94S
LEVELLAND 4S     N/A     70  37  30 SE10      29.94R
LUBBOCK 3WNW     N/A     73  35  24 SE12      29.94S
MORTON 1ENE      N/A     71  36  28 SE12      29.93S
ODONNELL 1N      N/A     71  36  27 SE9       29.94S
PLAINS 3N        N/A     70  38  31 SE12      29.94R
RALLS 1SE        N/A     68  35  29 SE10      29.96S
REESE CENTER     N/A     72  34  24 SE15      29.93S
SEAGRAVES 1SW    N/A     71  42  35 SE8       29.93R
SEMINOLE 2NNE    N/A     70  40  32 SE9       29.93R
SLATON 2NE       N/A     70  34  26 SE12      29.95S
SNYDER 3E        N/A     72  39  29 SE14      29.94S
SUNDOWN 8SW      N/A     71  37  29 SE13      29.93S
TAHOKA 3NNE      N/A     70  36  29 SE10      29.93F
WOLFFORTH 6SSW   N/A     70  38  31 SE12      29.94S
$$

TXZ031-032-036>038-042>044-230400-
TEXAS TECH WEST TEXAS MESONET/ROLLING PLAINS

CITY           SKY/WX    TMP DP  RH WIND       PRES   REMARKS
ASPERMONT 3NE    N/A     71  41  33 SE7       29.93R
FLUVANNA 3WNW    N/A     72  35  25 SE13      29.95R
GRAHAM 5SSW      N/A     72  35  25 SE12      29.95R
GUTHRIE 10WSW    N/A     70  42  36 SE9       29.93R
HASKELL 1NW      N/A     72  43  35 SE7       29.93S
JAYTON 1SSE      N/A     71  39  32 SE9       29.93S
KNOX CITY 3NW    N/A     70  48  45 E8        29.93S
LK A HENRY 1NW   N/A     73  37  26 SE8       29.93R
NORTHFIELD 1S    N/A     71  48  42 SE10      29.92S
ODELL 4ENE       N/A     68  54  61 E6        29.94R
PADUCAH 10SW     N/A     70  46  43 SE9       29.93S
POST 1NE         N/A     71  34  25 SE8       29.94R
RRING SPRGS 3N   N/A     69  42  37 SE9       29.94S
SEYMOUR 3NW      N/A     68  54  60 E7        29.93R
SPUR 1W          N/A     70  35  27 SE7       29.93R
WEINERT 2NNE     N/A     71  46  40 SE8       29.93S
WHITE RVR 6NE    N/A     71  35  27 E9        29.94S
$$

TXZ052-054-060>062-072-078-127-140-154-169-230400-
TEXAS TECH WEST TEXAS MESONET/PERMIAN BASIN/
CONCHO VALLEY/BIG COUNTRY/EDWARDS PLATEAU

CITY           SKY/WX    TMP DP  RH WIND       PRES   REMARKS
COYANOSA 2N      N/A     78  45  30 SE12      29.88S
JUNCTION 1SSW    N/A     73  53  47 E5        29.97R
MERTZON 3NNE     N/A     73  44  36 SE3       29.96R
SAN ANGELO 7NW   N/A     73  44  35 E8        29.95R
STRLNG CT 4WSW   N/A     73  41  31 E9        29.95S
ST LAWRNCE 5SW   N/A     73  38  27 E15       29.94S
SWEETWATR 11SW   N/A     71  43  36 SE10      29.98R
WALL 1E          N/A     72  41  31 E8        29.95S
$$

TXZ055-058-074-075-080-082-230400-
TEXAS TECH WEST TEXAS MESONET/FAR WEST/SOUTHWEST MOUNTAINS/TRANS PECOS

CITY           SKY/WX    TMP DP  RH WIND       PRES   REMARKS
PRSMN GAP BBNP   N/A     81  46  28 NE13      29.89R
$$



USA.gov is the U.S. government's official web portal to all federal, state and local government web resources and services.